Погода в Хабезе

Россия / Карачаево-Черкесская Республика     44°02′35″N   41°45′59″E
В апреле 2022 года жителям России запретили посещать сайт meteo.paraplan.net по решению Генеральной прокуратуры. Аудитория сайта уменьшилась в 10 раз. Владельцы сайта не видят смысла в поддержке погодного сервера в таких условиях. Сайт будет закрыт в октябре.
темп.,
°C
ветер,
м/с
пор.,
м/с
влажн.,
%
обл.,
%
осадки,
мм/ч
давл.,
гПа
погр.,
м
4 октября, вт
вт400:00+9юв119336 0.0 101411
03:00+9ю1195100 0.0 101412
06:00+10ююв2290100 0.2 101353
09:00+13з117945 0.3 1013192
12:00+17с326738 0.2 1014838
15:00+14ссз3479100 1.4 1016497
18:00+11с3498100 3.5 1018207
21:00+11вюв2299100 15.2 1019110
5 октября, ср
ср500:00+11зсз1198100 0.3 102012
03:00+11всв0097100 0.3 102029
06:00+12в119776 0.1 101948
09:00+13сз2390100 0.1 1022423
12:00+10с239697 2.0 1024317
15:00+10ссв1195100 7.2 1024161
18:00+10ссв2299100 5.8 1024129
21:00+10ссв2399100 16.6 1025194
6 октября, чт
чт600:00+10с1299100 4.2 1025131
03:00+10ссв3399100 10.6 1024196
06:00+10с1299100 4.9 1024215
09:00+10ссв2399100 5.7 1024283
12:00+11с2297100 0.3 1024294
15:00+11ссв2297100 0.4 1024273
18:00+11св1198100 0.1 102572
21:00+10ссв129999 0.1 1025113
7 октября, пт
пт700:00+10ссв1199100 0.1 102595
03:00+10юв119887 0.1 102463
06:00+9вюв119765 0.0 102414
09:00+11всв118699 0.0 1023402
12:00+13ссв228299 0.0 1022509
15:00+13ссв227999 0.0 1021626
18:00+11ссв228943 0.0 102147
21:00+9вюв11950 0.0 102110
8 октября, сб
сб800:00+8вюв11955 0.0 102010
03:00+8юв11945 0.0 101810
06:00+8вюв119448 0.0 101810
09:00+12всв227910 0.0 1016215
12:00+18ссв326335 0.0 1013437
15:00+18ссз226599 0.0 1012472
18:00+12ссз229036 0.1 101515
21:00+11ююв1191100 0.1 101510